[[{"header":{"parameterUnit":"m.s-1","parameterCategory":1,"la1":30.2991,"la2":30.254,"lo1":-89.0895,"lo2":-89.0444,"dy":0.0017,"dx":0.0017,"nx":28,"ny":28,"refTime":"2024-10-06T03:00:00:Z","depth":0,"parameterNumber":2,"parameterNumberName":"U-component_of_WINDS"},"data":[0,0,0,0,0,0,0,0,0,0,0,0,0,0,0,0,0,0,0,0,0,0,0,0,0,0,0,0,0,0,0,0,0,0,0,0,0,0,0,0,0,0,0,0,0,0,0,0,0,0,0,0,0,0,0,0,0,0,0.5204,0.5204,0,0.5211,0.5211,0.5211,0.5198,0.5198,0.5197,0.5197,0.5204,0.5204,0.5205,0,0,0,0,0,0,0,0,0,0,0,0,0,0.5178,0.5179,0.5204,0.5204,0.5204,0.5211,0.5211,0.5211,0.5198,0.5198,0.5197,0.5197,0.5204,0.5204,0.5205,0,0,0,0,0,0,0,0,0,0,0,0,0,0.5188,0.5179,0.5203,0.5198,0.5198,0.5211,0.5211,0.5211,0.5198,0.5198,0.5197,0.5197,0.5203,0.5204,0.5205,0.5223,0,0,0.5208,0.5208,0,0,0,0,0,0,0,0,0.5187,0.5189,0.5199,0.5199,0.5198,0.5203,0.5205,0.5215,0.5199,0.5198,0.5197,0.5196,0.5204,0.5205,0.5208,0.5224,0.5224,0.5208,0.5208,0.5209,0.5209,0,0,0,0,0,0,0,0.5187,0.5188,0.5206,0.5199,0.5199,0.5196,0.5196,0.5207,0.5205,0.5198,0.5197,0.5198,0.5204,0.5207,0.5208,0.5224,0.5208,0.5209,0.5209,0.5209,0.5257,0.5257,0,0,0,0,0,0,0.5187,0.5188,0.5206,0.5207,0.5191,0.5197,0.5197,0.5202,0.5204,0.5204,0.5199,0.5198,0.5206,0.5207,0.5208,0.523,0.5209,0.5209,0.521,0.5256,0.5257,0.5258,0,0,0,0,0,0,0.5186,0.5188,0.5206,0.5197,0.5199,0.5198,0.5203,0.5203,0.5206,0.5205,0.5205,0.5202,0.5205,0.5207,0.522,0.523,0.521,0.5211,0.5255,0.5256,0.5257,0.5273,0,0,0,0,0,0,0.5186,0.5188,0.5195,0.5197,0.52,0.5218,0.5204,0.5203,0.5207,0.5206,0.5208,0.5208,0.5205,0.5219,0.5221,0.5231,0.5211,0.5254,0.5256,0.5257,0.5272,0.5275,0.5278,0,0,0,0,0,0.5185,0.5199,0.5195,0.5198,0.5208,0.5218,0.522,0.5216,0.5208,0.5215,0.5215,0.5208,0.5229,0.522,0.5222,0.5233,0.5254,0.5255,0.5257,0.5271,0.5274,0.5277,0,0,0,0,0,0,0.5197,0.5199,0.5195,0.5211,0.5215,0.5216,0.5224,0.522,0.5225,0.5224,0.5219,0.5219,0.5234,0.5235,0.5225,0.5251,0.524,0.5242,0.525,0.5253,0.5256,0.5255,0.5212,0,0,0,0,0,0.5202,0.521,0.5211,0.5225,0.5227,0.5226,0.523,0.5227,0.5231,0.5232,0.5233,0.5236,0.5244,0.5249,0.5255,0.5273,0.5273,0.5281,0.5284,0.5286,0.5288,0.5297,0.5301,0.5263,0.5263,0.5263,0,0,0.5211,0.5213,0.5219,0.5227,0.523,0.5239,0.5227,0.5237,0.5243,0.5233,0.5246,0.5247,0.5251,0.5266,0.5273,0.5267,0.5298,0.5288,0.529,0.529,0.5299,0.5303,0.5306,0.5264,0.5264,0.5264,0,0,0.5232,0.5235,0.5247,0.525,0.5255,0.5254,0.5257,0.526,0.526,0.5273,0.5266,0.5274,0.5287,0.529,0.5293,0.5318,0.5312,0.5321,0.5335,0.5344,0.5347,0.535,0.5358,0.5362,0.5323,0.5323,0.5323,0,0.5243,0.5256,0.5253,0.5264,0.5268,0.5261,0.5273,0.5276,0.5283,0.5286,0.528,0.5296,0.5298,0.5315,0.5321,0.5324,0.5327,0.532,0.5347,0.535,0.5352,0.536,0.5364,0.5324,0.5324,0.5323,0.5323,0,0.5269,0.5279,0.5288,0.5295,0.5301,0.5312,0.5311,0.5317,0.5314,0.5314,0.5328,0.533,0.5338,0.5342,0.5339,0.5358,0.5354,0.5348,0.5336,0.5357,0.5364,0.5367,0.5325,0.5325,0.5324,0.5324,0,0,0.5297,0.5304,0.5307,0.5311,0.5316,0.5323,0.5335,0.5343,0.5348,0.5353,0.5362,0.5375,0.5369,0.5373,0.537,0.5379,0.5399,0.5371,0.5371,0.5376,0.542,0.5424,0.5428,0.5395,0.5396,0.5396,0.542,0,0.5318,0.5337,0.5336,0.5355,0.5364,0.5358,0.5368,0.5373,0.5374,0.5381,0.5382,0.5391,0.5383,0.5385,0.5393,0.5394,0.5407,0.5393,0.5403,0.5404,0.5402,0.5432,0.5436,0.5458,0.5423,0.5423,0.5424,0,0.5344,0.5351,0.5371,0.5377,0.538,0.5389,0.5397,0.5405,0.541,0.541,0.5416,0.5412,0.5424,0.5413,0.543,0.542,0.5424,0.5426,0.5427,0.5426,0.5414,0.5432,0.5465,0.5468,0.5428,0.5428,0.5428,0,0.5362,0.5377,0.539,0.5394,0.54,0.5407,0.541,0.5415,0.542,0.5427,0.5431,0.5439,0.5443,0.545,0.5449,0.5441,0.5465,0.5455,0.5466,0.5466,0.547,0.5469,0.5503,0.5474,0.5474,0.5474,0.5474,0,0.5385,0.5397,0.5399,0.5407,0.5421,0.542,0.5433,0.5436,0.5441,0.5449,0.5446,0.5454,0.5453,0.5461,0.5461,0.5474,0.5476,0.5476,0.5476,0.5476,0.5476,0.5478,0.5476,0.5475,0.5475,0.5475,0.5475,0,0.5406,0.5408,0.5422,0.5428,0.543,0.544,0.5445,0.5453,0.5454,0.5466,0.5468,0.547,0.548,0.5481,0.5492,0.5492,0.5508,0.5506,0.5506,0.5505,0.5516,0.5515,0.5552,0.5557,0.5525,0.5526,0.5526,0,0.542,0.5429,0.5437,0.5443,0.5447,0.5456,0.5462,0.5462,0.5468,0.5476,0.5484,0.5493,0.5501,0.5517,0.552,0.5529,0.5526,0.5539,0.5528,0.5528,0.5526,0.5525,0.5526,0.5541,0.5541,0.5541,0.5541,0,0.5445,0.5446,0.5454,0.5464,0.5471,0.5478,0.5485,0.549,0.5491,0.5499,0.5509,0.5515,0.5528,0.5537,0.5546,0.5549,0.5545,0.5545,0.5548,0.5548,0.5547,0.5548,0.5511,0.5544,0.5544,0.5544,0.5543,0.5543,0.5462,0.5471,0.5478,0.5488,0.5493,0.55,0.5508,0.5512,0.5521,0.5531,0.5531,0.5542,0.5549,0.5561,0.5565,0.5574,0.5569,0.5574,0.5575,0.5576,0.5577,0.5547,0.5576,0.5575,0.5575,0.5575,0.5575,0,0.5486,0.5491,0.5501,0.5511,0.5519,0.5516,0.5524,0.5531,0.5542,0.5548,0.5557,0.5569,0.5579,0.5583,0.5593,0.56,0.5598,0.5602,0.5601,0.5602,0.558,0.5576,0.5603,0.5603,0.5603,0.5603,0.5603,0.5603,0.55,0.5514,0.5516,0.5533,0.5538,0.555,0.5555,0.5561,0.5567,0.5581,0.559,0.5593,0.5598,0.5609,0.5618,0.5619,0.5622,0.5627,0.5627,0.5606,0.5603,0.5601,0.5597,0.5628,0.5628,0.5648,0.5648,0.5648]},{"header":{"parameterUnit":"m.s-1","parameterCategory":1,"la1":30.2991,"la2":30.254,"lo1":-89.0895,"lo2":-89.0444,"dy":0.0017,"dx":0.0017,"nx":28,"ny":28,"refTime":"2024-10-06T03:00:00:Z","depth":0,"parameterNumber":3,"parameterNumberName":"V-component_of_WINDS"},"data":[0,0,0,0,0,0,0,0,0,0,0,0,0,0,0,0,0,0,0,0,0,0,0,0,0,0,0,0,0,0,0,0,0,0,0,0,0,0,0,0,0,0,0,0,0,0,0,0,0,0,0,0,0,0,0,0,0,0,-3.0336,-3.0336,0,-3.0346,-3.0346,-3.0346,-3.0344,-3.0344,-3.0344,-3.0343,-3.0351,-3.0351,-3.0351,0,0,0,0,0,0,0,0,0,0,0,0,0,-3.0316,-3.0316,-3.0336,-3.0336,-3.0336,-3.0346,-3.0346,-3.0346,-3.0344,-3.0344,-3.0344,-3.0343,-3.0351,-3.0351,-3.0351,0,0,0,0,0,0,0,0,0,0,0,0,0,-3.0325,-3.0316,-3.0336,-3.0337,-3.0337,-3.0346,-3.0346,-3.0346,-3.0344,-3.0344,-3.0343,-3.0343,-3.035,-3.0351,-3.0351,-3.036,0,0,-3.0353,-3.0353,0,0,0,0,0,0,0,0,-3.0324,-3.0325,-3.0336,-3.0337,-3.0337,-3.0343,-3.0341,-3.035,-3.0344,-3.0341,-3.0343,-3.0343,-3.0348,-3.0349,-3.0351,-3.036,-3.036,-3.0353,-3.0353,-3.0354,-3.0354,0,0,0,0,0,0,0,-3.0323,-3.0325,-3.034,-3.0337,-3.0337,-3.0336,-3.0337,-3.0343,-3.0346,-3.0341,-3.0341,-3.0343,-3.0348,-3.0351,-3.0351,-3.036,-3.0353,-3.0354,-3.0354,-3.0354,-3.0377,-3.0378,0,0,0,0,0,0,-3.0323,-3.0324,-3.034,-3.034,-3.033,-3.0337,-3.0338,-3.0341,-3.0346,-3.0346,-3.0343,-3.0342,-3.035,-3.0351,-3.0352,-3.0362,-3.0354,-3.0354,-3.0354,-3.0377,-3.0377,-3.0378,0,0,0,0,0,0,-3.0322,-3.0324,-3.0339,-3.0332,-3.0334,-3.0337,-3.0341,-3.0342,-3.0344,-3.0347,-3.0347,-3.0345,-3.035,-3.0351,-3.0358,-3.0362,-3.0354,-3.0355,-3.0377,-3.0377,-3.0378,-3.0383,0,0,0,0,0,0,-3.0322,-3.0324,-3.0327,-3.0332,-3.0335,-3.0346,-3.0342,-3.0342,-3.0345,-3.0345,-3.0349,-3.0349,-3.035,-3.0357,-3.0359,-3.0363,-3.0355,-3.0376,-3.0377,-3.0377,-3.0382,-3.0383,-3.0384,0,0,0,0,0,-3.0321,-3.0328,-3.0328,-3.0329,-3.0339,-3.0346,-3.0347,-3.0348,-3.0346,-3.0349,-3.0351,-3.0349,-3.0362,-3.0358,-3.0359,-3.0364,-3.0376,-3.0377,-3.0377,-3.0382,-3.0383,-3.0384,0,0,0,0,0,0,-3.0322,-3.0328,-3.0328,-3.0337,-3.0341,-3.0346,-3.035,-3.0349,-3.0354,-3.0353,-3.0354,-3.0355,-3.0362,-3.0364,-3.0359,-3.0373,-3.0368,-3.0369,-3.0371,-3.0372,-3.0373,-3.0373,-3.0356,0,0,0,0,0,-3.0323,-3.0329,-3.0334,-3.0341,-3.0343,-3.0346,-3.0349,-3.035,-3.0354,-3.0356,-3.0358,-3.0362,-3.0367,-3.037,-3.0374,-3.0383,-3.0383,-3.0386,-3.0387,-3.0388,-3.0389,-3.0394,-3.0396,-3.038,-3.038,-3.038,0,0,-3.0325,-3.033,-3.0333,-3.0341,-3.0345,-3.0351,-3.0348,-3.0354,-3.0358,-3.0356,-3.0364,-3.0366,-3.037,-3.0378,-3.0381,-3.0379,-3.0394,-3.0389,-3.039,-3.039,-3.0395,-3.0397,-3.0398,-3.0381,-3.038,-3.038,0,0,-3.0333,-3.0337,-3.0343,-3.0347,-3.0353,-3.0355,-3.0357,-3.0362,-3.0364,-3.0371,-3.0371,-3.0376,-3.0384,-3.0387,-3.039,-3.04,-3.0399,-3.0402,-3.0407,-3.0412,-3.0413,-3.0414,-3.0418,-3.042,-3.0402,-3.0403,-3.0403,0,-3.0335,-3.0344,-3.0346,-3.0353,-3.0357,-3.0357,-3.0364,-3.0367,-3.0374,-3.0376,-3.0374,-3.0386,-3.0388,-3.0398,-3.04,-3.0402,-3.0404,-3.0401,-3.0413,-3.0414,-3.0415,-3.0419,-3.042,-3.0403,-3.0403,-3.0403,-3.0403,0,-3.0346,-3.0353,-3.0358,-3.0365,-3.037,-3.0376,-3.038,-3.0384,-3.0385,-3.0387,-3.0395,-3.0399,-3.0404,-3.0407,-3.0407,-3.0416,-3.0415,-3.0413,-3.0409,-3.0417,-3.042,-3.0422,-3.0403,-3.0403,-3.0403,-3.0403,0,0,-3.0353,-3.0363,-3.0365,-3.0369,-3.0376,-3.0381,-3.0388,-3.0395,-3.0399,-3.0403,-3.0409,-3.0417,-3.0416,-3.0419,-3.042,-3.0424,-3.0433,-3.0422,-3.0422,-3.0424,-3.0444,-3.0445,-3.0447,-3.0432,-3.0433,-3.0433,-3.0443,0,-3.0361,-3.0374,-3.0377,-3.0388,-3.0395,-3.0396,-3.0402,-3.0407,-3.041,-3.0415,-3.0418,-3.0424,-3.0421,-3.0423,-3.0428,-3.0431,-3.0437,-3.043,-3.0437,-3.0437,-3.0436,-3.0448,-3.0449,-3.0459,-3.0445,-3.0445,-3.0445,0,-3.0372,-3.0379,-3.039,-3.0398,-3.0401,-3.0406,-3.0413,-3.0419,-3.0425,-3.0426,-3.0431,-3.0432,-3.0439,-3.0435,-3.0445,-3.044,-3.0443,-3.0445,-3.0446,-3.0446,-3.0441,-3.0449,-3.0462,-3.0464,-3.0447,-3.0447,-3.0447,0,-3.0376,-3.0388,-3.0397,-3.04,-3.0409,-3.0413,-3.0417,-3.0423,-3.0427,-3.0433,-3.0436,-3.0442,-3.0445,-3.045,-3.0453,-3.045,-3.0463,-3.0459,-3.0464,-3.0464,-3.0466,-3.0466,-3.048,-3.0469,-3.0469,-3.0469,-3.0468,0,-3.0384,-3.0391,-3.0399,-3.0404,-3.0413,-3.0416,-3.0424,-3.0428,-3.0434,-3.044,-3.0441,-3.0446,-3.0449,-3.0455,-3.0457,-3.0465,-3.0467,-3.0468,-3.0468,-3.0468,-3.0468,-3.047,-3.0469,-3.0469,-3.0469,-3.0469,-3.0469,0,-3.039,-3.0395,-3.0405,-3.0413,-3.0416,-3.0421,-3.0428,-3.0434,-3.0437,-3.0445,-3.0447,-3.0452,-3.0459,-3.0462,-3.0471,-3.0472,-3.0481,-3.0481,-3.048,-3.048,-3.0485,-3.0484,-3.05,-3.0503,-3.049,-3.049,-3.049,0,-3.0394,-3.04,-3.041,-3.0415,-3.0419,-3.0426,-3.0431,-3.0436,-3.044,-3.0449,-3.0453,-3.0461,-3.0467,-3.0478,-3.0482,-3.0489,-3.0489,-3.0494,-3.049,-3.0489,-3.0489,-3.0488,-3.0489,-3.0495,-3.0495,-3.0495,-3.0495,0,-3.0403,-3.0406,-3.0413,-3.0422,-3.0428,-3.0435,-3.0441,-3.0445,-3.045,-3.0455,-3.0464,-3.0469,-3.0478,-3.0486,-3.0493,-3.0496,-3.0496,-3.0497,-3.0498,-3.0497,-3.0496,-3.0497,-3.0482,-3.0496,-3.0496,-3.0496,-3.0496,-3.0496,-3.0408,-3.0414,-3.0422,-3.043,-3.0436,-3.0443,-3.0449,-3.0454,-3.0461,-3.0469,-3.0471,-3.048,-3.0487,-3.0497,-3.0501,-3.0507,-3.0506,-3.0508,-3.0508,-3.0509,-3.0509,-3.0496,-3.0508,-3.0508,-3.0508,-3.0508,-3.0508,0,-3.0417,-3.0422,-3.043,-3.044,-3.0447,-3.0448,-3.0456,-3.0461,-3.0469,-3.0476,-3.0482,-3.0492,-3.05,-3.0505,-3.0513,-3.0517,-3.0517,-3.0519,-3.0518,-3.0519,-3.051,-3.0508,-3.0519,-3.0519,-3.0519,-3.0519,-3.0519,-3.0519,-3.0422,-3.0432,-3.0436,-3.0449,-3.0454,-3.0464,-3.0468,-3.0474,-3.0479,-3.0491,-3.0497,-3.0501,-3.0507,-3.0516,-3.0523,-3.0524,-3.0527,-3.0529,-3.053,-3.0521,-3.052,-3.0519,-3.0517,-3.0529,-3.0529,-3.0539,-3.0539,-3.0539]}]]